Location: Helsinki
(60.1699°N, 24.9384°E)
Time: 11:48:25
(UTC+02:00)

Transit 2A Rocket - Pass Details

Date: 29 September 2023
Orbit: 593 x 903 km, 66.7° (Epoch: 06 December)

Event Time Altitude Azimuth Distance (km) Brightness Sun altitude
Rises 19:27:07 0° 286° (WNW) 3,133 10.2 -4.2°
Reaches altitude 10° 19:29:43 10° 295° (WNW) 2,160 8.7 -4.5°
Maximum altitude 19:34:15 38° 3° (N) 1,012 5.7 -5.1°
Drops below altitude 10° 19:38:29 10° 73° (ENE) 2,008 6.6 -5.6°
Enters shadow 19:39:23 - 77° (ENE) 2,341 6.9 -5.7°
Sets 19:40:49 0° 81° (E) 2,884 - -5.9°
